www.pogodaiklimat.ru
ПОГОДА в Кумлинге
Время
(UTC), дата
16 19.01
17 19.01
18 19.01
19 19.01
20 19.01
21 19.01
22 19.01
23 19.01
00 20.01
01 20.01
02 20.01
03 20.01
04 20.01
05 20.01
06 20.01
07 20.01
08 20.01
09 20.01
10 20.01
11 20.01
12 20.01
13 20.01
14 20.01
15 20.01
16 20.01
17 20.01
18 20.01
19 20.01
20 20.01
21 20.01
22 20.01
23 20.01
00 21.01
01 21.01
02 21.01
03 21.01
04 21.01
05 21.01
06 21.01
07 21.01
08 21.01
09 21.01
10 21.01
11 21.01
12 21.01
13 21.01
14 21.01
15 21.01
16 21.01
17 21.01
18 21.01
19 21.01
20 21.01
21 21.01
22 21.01
23 21.01
00 22.01
01 22.01
02 22.01
03 22.01
04 22.01
05 22.01
06 22.01
07 22.01
08 22.01
09 22.01
10 22.01
11 22.01
12 22.01
13 22.01
14 22.01
15 22.01
16 22.01
17 22.01
18 22.01
19 22.01
20 22.01
21 22.01
22 22.01
23 22.01
00 23.01
01 23.01
02 23.01
03 23.01
04 23.01
05 23.01
06 23.01
07 23.01
08 23.01
09 23.01
10 23.01
11 23.01
12 23.01
13 23.01
14 23.01
15 23.01
16 23.01
17 23.01
18 23.01
19 23.01
20 23.01
21 23.01
22 23.01
23 23.01
00 24.01
01 24.01
02 24.01
03 24.01
04 24.01
05 24.01
06 24.01
07 24.01
08 24.01
09 24.01
10 24.01
11 24.01
12 24.01
13 24.01
14 24.01
15 24.01
16 24.01
17 24.01
18 24.01
19 24.01
20 24.01
21 24.01
22 24.01
23 24.01
00 25.01
01 25.01
02 25.01
03 25.01
04 25.01
05 25.01
06 25.01
07 25.01
08 25.01
09 25.01
10 25.01
11 25.01
12 25.01
13 25.01
14 25.01
15 25.01
16 25.01
17 25.01
18 25.01
19 25.01
20 25.01
21 25.01
22 25.01
23 25.01
00 26.01
01 26.01
03 26.01
04 26.01
05 26.01
06 26.01
08 26.01
09 26.01
10 26.01
11 26.01
12 26.01
13 26.01
14 26.01
15 26.01
Ветер
(напр.,м/с)
Видим. Явления Облачность Т
(С)
Тd
(С)
f
(%)
Тe
(С)
Тes
(С)
Комфортность P
(гПа)
Po
(гПа)
Тmin
(С)
Tmax
(С)
R
(мм)
R24
(мм)
S
(см)
Ю 4-6
{7}
50 км 10/10 2000 м +1.1 -1.9 80 -4 -4 1008.3 1005.3
Ю 5-7
{8}
50 км 10/10 2000 м +1.2 -3.2 72 -4 -4 1008.3 1005.3
Ю 5-8
{8}
50 км {ливн. снег, снег} 9/9 2000 м +1.1 -3.8 70 -4 -4 1008.4 1005.4 -0.2 +1.3
Ю 7-10
{10}
50 км 4/4 2000 м +0.9 -4.5 67 -6 -6 1008.4 1005.4
Ю 7-10
{11}
50 км 1/1 2000 м +0.7 -3.9 71 -6 -6 1008.6 1005.6
Ю 6-9
{12}
50 км 6/6 2000 м +0.5 -3.6 74 -6 -6 1008.4 1005.4
Ю 8-12
{12}
50 км 9/1 600 м +0.5 -3.9 72 -7 -7 1008.4 1005.3
Ю 7-11
{11}
50 км 9/4 870 м +0.4 -3.6 74 -6 -6 1008.3 1005.2
Ю 7-11
{11}
50 км 9/1 600 м -0.2 -3.6 78 -7 -7 1008.1 1005.0
ЮВ 7-10
{11}
50 км 4/4 630 м -0.6 -3.7 80 -8 -8 1007.7 1004.7
ЮВ 6-10
{11}
50 км 9/1 300 м -0.7 -3.7 80 -7 -7 1007.5 1004.5
ЮВ 7-11
{12}
50 км 9/1 300 м -0.8 -4.3 77 -8 -8 1007.3 1004.2
ЮВ 8-11
{12}
50 км 9/1 300 м -1.2 -4.4 79 -9 -9 1007.0 1003.9
ЮВ 7-10
{12}
45 км 9/1 300 м -1.5 -5.0 77 -9 -9 1006.9 1003.8
ЮВ 7-9
{11}
50 км 10/10 630 м -1.4 -4.8 78 -9 -9 1006.7 1003.7 -1.5 +1.4
ЮВ 6-12
{12}
40 км 10/10 630 м -1.4 -4.4 80 -8 -8 1006.5 1003.5
ЮВ 7-12
{12}
27 км 10/10 480 м -1.2 -3.3 86 -9 -9 1006.2 1003.2
ЮВ 7-11
{11}
17 км слаб. снег {осадки} 9/9 200 м -1.4 -3.1 88 -9 -9 1006.1 1003.0
ЮВ 6-9
{11}
18 км в посл. час снег 10/10 300 м -1.1 -2.8 88 -8 -8 1005.6 1002.5
ЮВ 5-9
{11}
11 км слаб. снег 9/9 270 м -1.1 -2.5 90 -8 -8 1005.1 1002.0
ЮВ 5-9
{9}
7000 м слаб. снег {дождь} 10/10 240 м -1.1 -2.2 92 -8 -8 1004.5 1001.5
ЮВ 6-10
{10}
11 км слаб. снег 9/9 210 м -0.7 -1.6 94 -8 -8 1003.7 1000.7
ЮВ 6-10
{10}
8000 м слаб. снег 10/10 180 м -0.5 -1.3 94 -7 -7 1003.3 1000.3
ЮВ 7-11
{11}
2000 м слаб. снег {дождь} 10/10 180 м -0.5 -1.0 96 -8 -8 1002.5 999.5
ЮВ 7-11
{11}
6000 м слаб. снег 9/9 150 м -0.3 -0.6 98 -8 -8 1002.1 999.1
ЮВ 7-12
{12}
10 км в посл. час зёрна 10/10 150 м -0.5 -0.9 97 -8 -8 1001.7 998.7
ЮВ 7-12
{14}
4000 м слаб. снег 10/10 180 м -0.3 -0.8 96 -8 -8 1001.1 998.1 -1.4 -0.2
ЮВ 9-13
{14}
3000 м слаб. снег 10/10 180 м -0.6 -1.0 97 -9 -9 1000.4 997.4
ЮВ 9-14
{15}
1200 м слаб. снег 10/10 240 м -0.9 -1.4 96 -9 -9 999.9 996.9
ЮВ 8-14
{15}
800 м снег 9/9 210 м -1.1 -1.6 96 -9 -9 999.2 996.2
ЮВ 9-15
{16}
1100 м снег 9/9 210 м -1.3 -1.9 96 -10 -10 998.5 995.5
ЮВ 9-15
{15}
2100 м слаб. снег 9/9 330 м -1.2 -2.0 94 -10 -10 998.0 995.0
ЮВ 10-16
{16}
1300 м слаб. снег 10/10 270 м -1.3 -2.3 93 -10 -10 997.0 994.0
ЮВ 8-12
{14}
2100 м слаб. снег 10/10 270 м -1.0 -1.7 95 -9 -9 996.8 993.8
ЮВ 8-13
{14}
1800 м слаб. снег 10/10 210 м -1.0 -1.5 96 -9 -9 996.5 993.5
ЮВ 9-15
{15}
1300 м слаб. снег 10/10 180 м -1.3 -1.8 96 -10 -10 995.9 992.8
ЮВ 8-13
{16}
1700 м слаб. снег 10/10 180 м -0.9 -1.2 98 -9 -9 995.4 992.4
ЮВ 10-15
{16}
3200 м слаб. снег 10/10 210 м -0.8 -1.3 96 -9 -9 994.8 991.8
ЮВ 10-16
{17}
3200 м слаб. снег 10/10 210 м -0.7 -1.4 95 -9 -9 994.4 991.4 -1.5 -0.1
ЮВ 10-14
{17}
2000 м слаб. снег 10/10 210 м -0.8 -1.4 96 -9 -9 994.1 991.1
ЮВ 10-17
{18}
6000 м слаб. ледяной дождь 10/10 210 м -0.5 -1.1 96 -9 -9 993.6 990.6
ЮВ 11-17
{18}
7000 м слаб. дождь со снегом 10/10 180 м -0.2 -0.7 96 -9 -9 992.9 989.8
ЮВ 10-17
{17}
14 км в посл. час дождь 10/10 150 м 0.0 -0.4 97 -8 -8 992.8 989.8
ЮВ 9-16
{17}
4700 м ливневой дождь 10/10 50 м +0.4 +0.2 99 -8 -8 992.3 989.3
ЮВ 10-15
{16}
1500 м в посл. час осадки {ливн. снег} ?/? +1.0 +0.9 99 -7 -7 991.4 988.4
ЮВ 9-15
{16}
600 м туман ?/? +1.6 +1.5 99 -6 -6 990.7 987.7
ЮВ 10-15
{15}
500 м туман ?/? +2.2 +2.2 100 -6 -6 990.2 987.2
ЮВ 8-12
{15}
2700 м в посл. час туман 10/10 <50 м +3.3 +3.3 100 -3 -3 989.6 986.6
ЮВ 9-15
{15}
6000 м дымка 9/9 150 м +3.5 +3.5 100 -4 -4 989.2 986.2
ЮВ 8-13
{14}
9000 м ливневой дождь 9/9 270 м +3.8 +3.6 99 -3 -3 988.3 985.4
Ю 7-10
{15}
7000 м слаб. морось {дождь} 9/9 180 м +3.6 +3.4 99 -3 -3 988.3 985.3 -0.8 +3.8
Ю 6-9
{10}
7000 м слаб. дождь 9/9 330 м +3.8 +3.6 99 -2 -2 988.6 985.6
Ю 6-8
{10}
27 км 6/6 +4.1 +3.2 94 -2 -2 988.9 985.9
Ю 6-8
{9}
30 км {дождь, морось} ясно +3.9 +2.8 93 -2 -2 989.4 986.5
Ю 6-8
{10}
45 км ясно +3.5 +1.4 86 -2 -2 990.1 987.1
Ю 5-7
{7}
40 км ясно +2.7 +1.5 92 -3 -3 990.1 987.2
Ю 6-8
{8}
40 км {дождь, морось} ясно +3.4 +2.1 91 -2 -2 989.9 986.9
Ю 6-8
{9}
21 км ясно +3.1 +2.6 97 -3 -3 989.7 986.7
Ю 6-8
{9}
26 км 1/0 +3.2 +2.5 95 -3 -3 989.7 986.8
Ю 6-10
{10}
25 км ясно +3.4 +2.6 94 -2 -2 989.9 986.9
Ю 6-8
{9}
22 км 6/0 +3.2 +2.6 96 -3 -3 989.7 986.8
Ю 6-8
{8}
21 км 9/0 +3.2 +2.6 96 -3 -3 989.7 986.7
Ю 6-8
{8}
19 км 9/4 +3.4 +2.9 97 -2 -2 989.6 986.6 +2.6 +4.3
Ю 6-8
{8}
16 км 9/6 +3.4 +2.9 97 -2 -2 989.1 986.2
ЮВ 6-10
{10}
12 км 4/4 +3.7 +3.3 97 -2 -2 988.7 985.8
ЮВ 7-10
{10}
10 км 9/9 120 м +3.9 +3.6 98 -2 -2 988.1 985.2
ЮВ 7-10
{12}
12 км 9/4 300 м +4.0 +3.4 96 -2 -2 987.3 984.4
ЮВ 9-14
{14}
6000 м слаб. дождь 9/9 150 м +3.7 +3.3 97 -3 -3 987.0 984.1
ЮВ 9-13
{15}
4900 м слаб. дождь {осадки} 9/9 120 м +3.1 +2.8 98 -4 -4 985.3 982.3
ЮВ 9-14
{16}
6000 м слаб. ливневой дождь 9/9 150 м +2.9 +2.6 98 -4 -4 984.2 981.2
ЮВ 10-16
{16}
5000 м слаб. ливневой дождь 9/9 210 м +3.0 +2.6 97 -4 -4 983.1 980.1
ЮВ 11-18
{18}
11 км в посл. час дождь {ливн. дождь} 9/6 930 м +3.6 +2.9 95 -4 -4 981.6 978.7
Ю 11-16
{19}
5000 м слаб. дождь 9/9 420 м +4.2 +3.5 95 -3 -3 981.1 978.1
Ю 11-16
{18}
21 км в посл. час дождь 9/9 570 м +5.2 +3.7 90 -2 -2 981.7 978.8
ЮЗ 9-13
{14}
50 км {ливн. дождь, дождь} 4/4 720 м +3.8 +1.2 83 -3 -3 983.4 980.5 +2.9 +5.4
Ю 8-12
{15}
50 км ясно +3.5 +0.3 80 -3 -3 984.3 981.3
Ю 9-11
{14}
50 км ясно +3.8 +0.7 80 -3 -3 984.8 981.8
Ю 9-12
{13}
50 км ясно +4.1 +0.8 79 -2 -2 985.0 982.1
Ю 8-14
{14}
40 км 1/1 300 м +3.9 +1.6 85 -2 -2 985.1 982.2
Ю 9-14
{15}
35 км 6/6 900 м +4.1 +1.4 83 -2 -2 985.4 982.5
Ю 9-13
{16}
40 км 10/10 1020 м +4.2 +1.0 80 -2 -2 985.2 982.3
Ю 10-14
{15}
29 км 10/10 800 м +4.4 +1.3 80 -2 -2 985.3 982.3
Ю 10-15
{17}
27 км слаб. ливневой дождь 10/10 630 м +4.3 +2.0 85 -2 -2 985.3 982.3
Ю 9-14
{17}
30 км в посл. час морось {ливн. дождь} 10/10 750 м +4.2 +2.2 87 -2 -2 985.5 982.5
Ю 10-15
{16}
45 км 10/10 800 м +4.7 +1.8 81 -2 -2 985.7 982.8
Ю 11-16
{16}
45 км 9/9 750 м +4.6 +1.9 83 -2 -2 986.1 983.2
ЮЗ 11-15
{17}
50 км {ливн. дождь, морось} 4/4 1500 м +4.5 +1.8 83 -2 -2 986.5 983.6 +3.4 +4.8
ЮЗ 11-15
{18}
50 км 10/10 600 м +4.6 +1.7 81 -2 -2 987.5 984.5
ЮЗ 11-16
{16}
45 км 10/10 600 м +4.6 +1.7 81 -2 -2 988.4 985.4
ЮЗ 10-15
{15}
45 км ясно +4.7 +1.0 77 -2 -2 989.7 986.7
ЮЗ 11-14
{15}
35 км 9/9 600 м +4.8 +0.7 75 -2 -2 990.7 987.8
ЮЗ 9-12
{15}
35 км 1/1 600 м +4.4 +0.7 77 -2 -2 991.4 988.5
ЮЗ 10-14
{15}
35 км ясно +4.6 +1.0 77 -2 -2 992.0 989.0
ЮЗ 9-12
{15}
30 км ясно +4.4 +0.7 77 -2 -2 992.9 990.0
ЮЗ 8-11
{13}
30 км ясно +4.0 +0.5 78 -2 -2 993.9 990.9
Ю 7-8
{11}
30 км ясно +3.4 +0.6 82 -3 -3 994.7 991.7
Ю 6-8
{9}
26 км ясно +3.1 +1.0 86 -3 -3 995.2 992.2
Ю 6-8
{9}
22 км ясно +2.7 +0.9 88 -3 -3 995.3 992.4
Ю 5-7
{8}
23 км 4/4 +2.5 +0.8 89 -3 -3 995.5 992.5 +2.5 +4.8
Ю 4-6
{6}
23 км 9/6 +2.6 +0.8 88 -2 -2 995.5 992.5
Ю 4-6
{6}
23 км 10/10 +2.9 +1.1 88 -2 -2 996.1 993.1
Ю 4-5
{7}
22 км 10/10 2000 м +3.0 +1.4 89 -2 -2 996.4 993.4
Ю 3-4
{5}
21 км 10/10 2000 м +2.9 +1.5 90 -1 -1 995.8 992.8
Ю 1-2
{3}
21 км 10/6 1500 м +2.9 +1.4 90 +1 +1 995.2 992.2
ЮВ 3-4
{8}
21 км 10/10 1000 м +2.9 +1.7 92 -1 -1 995.0 992.0
Ю 2-3
{4}
13 км 10/10 1260 м +2.6 +2.2 97 -1 -1 995.3 992.3
СВ 2-3
{3}
11 км слаб. дождь 9/4 1500 м +2.0 +1.7 98 -2 -2 994.7 991.8
С 2-4
{4}
17 км слаб. ливневой дождь 10/10 300 м +2.0 +1.3 95 -1 -1 994.5 991.5
С 2-3
{5}
10 км слаб. дождь 9/9 240 м +1.6 +1.3 98 -2 -2 994.3 991.3
С 3-4
{4}
10 км слаб. дождь 10/10 150 м +1.3 +1.1 99 -3 -3 994.0 991.0
С 2-3
{5}
15 км слаб. дождь 10/10 180 м +1.1 +0.8 98 -3 -3 994.0 991.0 +1.1 +3.5
СВ 3-5
{5}
27 км слаб. дождь 10/10 180 м +1.2 +0.9 98 -3 -3 994.3 991.3
С 3-4
{5}
29 км в посл. час дождь 9/1 300 м +0.9 +0.7 99 -4 -4 994.7 991.7
С 3-4
{4}
45 км {дождь, морось} 9/1 50 м +1.1 +0.9 99 -4 -3 994.8 991.8
С 3-3
{5}
12 км 6/6 300 м +1.0 +0.8 99 -4 -3 995.2 992.2
С 2-3
{4}
20 км ясно +1.8 +1.5 98 -2 -1 996.0 993.0
С 4-5
{5}
16 км {дождь, морось} 4/4 50 м +1.6 +1.1 96 -4 -3 995.9 992.9
СЗ 3-5
{6}
16 км в посл. час туман 10/10 90 м +1.5 +1.4 99 -3 -3 996.0 993.0
СЗ 4-6
{7}
40 км 10/10 240 м +1.5 +0.9 96 -4 -4 996.8 993.8
С 5-7
{7}
35 км {метель} 10/10 270 м +1.5 +0.6 94 -4 -4 996.9 993.9
С 4-6
{7}
24 км 10/10 200 м +1.3 +0.1 92 -4 -4 997.3 994.3
С 3-5
{7}
30 км 10/10 200 м +1.1 0.0 92 -3 -3 997.4 994.4
С 4-7
{7}
50 км {метель} 10/10 300 м +1.1 -0.1 92 -4 -4 997.1 994.1 +0.8 +2.0
-6
{8}
50 км 10/10 100 м +0.8 0.0 94 997.0 994.0
С 5-8
{8}
30 км 10/10 100 м +0.4 -0.1 96 -6 -6 996.8 993.8
СВ 5-8
{8}
3900 м дымка 10/10 50 м -0.1 -0.3 99 -6 -6 996.6 993.5
СВ 7-10
{10}
50 км 10/10 180 м +0.4 -0.5 94 -7 -7 996.1 993.1
СВ 5-9
{10}
50 км 10/10 240 м +0.5 -0.4 94 -6 -6 995.8 992.8
СВ 7-11
{11}
50 км 10/10 300 м +0.8 -0.5 91 -6 -6 995.3 992.3
СВ 7-10
{10}
12 км слаб. снег 10/10 270 м +0.5 -0.4 94 -7 -7 994.6 991.6
СВ 6-10
{11}
2700 м слаб. снег 10/10 210 м +0.1 -0.3 97 -7 -7 994.2 991.2
С 6-9
{10}
1600 м слаб. снег {осадки} 10/10 150 м 0.0 -0.2 99 -7 -7 993.7 990.7
С 6-9
{9}
800 м снег 9/9 90 м 0.0 -0.1 99 -7 -7 993.2 990.2
С 5-8
{9}
1600 м слаб. снег 10/10 90 м 0.0 -0.1 99 -6 -6 992.7 989.7
СВ 5-7
{10}
1700 м слаб. снег {осадки} 10/10 90 м 0.0 0.0 100 -6 -6 992.4 989.4 -0.2 +1.1
СВ 4-6
{7}
2300 м слаб. снег 10/10 120 м 0.0 0.0 100 -6 -6 992.5 989.5
СВ 3-5
{5}
2300 м слаб. снег 10/10 90 м 0.0 0.0 100 -5 -5 992.2 989.2
СВ 3-4
{5}
5000 м слаб. снег 10/10 120 м 0.0 0.0 100 -5 -5 992.2 989.2
В 3-4
{5}
9000 м слаб. снег 10/10 150 м +0.1 +0.1 100 -5 -5 992.3 989.3
В 2-2
{4}
900 м снег ?/? 0.0 0.0 100 -4 -4 992.0 989.0
В 2-3
{4}
3400 м слаб. снег {дождь} 10/10 120 м +0.2 +0.2 100 -4 -4 991.9 988.9
ЮВ 2-3
{3}
4700 м слаб. снег 10/10 120 м +0.3 +0.3 100 -4 -4 991.8 988.8
ЮВ 2-3
{4}
10 км слаб. снег 10/10 120 м +0.5 +0.5 100 -3 -3 992.0 989.0
ЮВ 3-4
{4}
13 км морось {снег, дождь} 10/10 150 м +1.1 +1.1 100 -4 -4 992.5 989.5
ЮВ 3-6
{6}
6000 м ливневой дождь 10/10 180 м +1.4 +1.4 100 -3 -3 992.9 989.9
ЮЗ 4-6
{8}
7000 м слаб. ливневой дождь 10/10 270 м +1.6 +1.6 100 -4 -4 993.4 990.4
Ю 3-5
{5}
5000 м слаб. дождь со снегом 10/10 210 м +1.4 +1.4 100 -3 -3 993.8 990.8 0.0 +2.0
ЮВ 5-8
{9}
40 км в посл. час дождь 10/10 240 м +2.0 +1.9 99 -4 -4 994.0 991.1
СЗ 4-6
{6}
9000 м слаб. ливневой дождь 10/10 90 м +0.7 +0.7 100 -5 -5 995.0 992.0
З 4-6
{7}
50 км в посл. час дождь {ливн. дождь} 9/9 270 м +0.9 +0.7 99 -5 -5 995.9 992.9
З 4-6
{6}
50 км 9/9 1050 м +0.8 +0.3 96 -5 -5 996.4 993.3
З 4-5
{6}
50 км 9/9 300 м +1.0 +0.2 94 -4 -4 997.1 994.1
З 4-6
{6}
50 км {ливн. снег, дождь} 10/10 300 м +0.8 -0.6 90 -5 -5 997.7 994.7
ЮЗ 2-2
{4}
50 км 10/10 300 м +0.9 -0.2 92 -3 -3 998.1 995.1
ЮЗ 2-4
{4}
50 км 10/10 630 м +0.9 +0.6 98 -3 -3 999.0 996.0
ЮЗ 1-2
{4}
50 км 9/9 700 м +0.8 +0.6 99 -1 -1 999.3 996.3
штиль 0
{2}
35 км 10/10 180 м +0.4 +0.2 99 -1 -1 999.5 996.5
СВ 2-3
{3}
18 км 10/10 600 м +0.4 +0.3 99 -3 -3 999.8 996.8 +0.1 +2.0
СВ 3-5
{5}
50 км 10/10 750 м +0.4 -0.8 92 -4 -4 1001.0 998.0
СВ 3-5
{5}
50 км 10/10 570 м +0.5 -1.2 88 -4 -4 1001.3 998.3
СВ 3-4
{5}
45 км слаб. ливневой снег 10/10 720 м +0.8 -0.3 92 -4 -4 1001.6 998.6
СВ 3-5
{6}
50 км в посл. час осадки 9/9 800 м +0.9 -0.4 91 -4 -4 1001.8 998.8
С 4-6
{6}
40 км {ливн. снег, снег} 10/10 800 м +1.0 +0.3 95 -4 -4 1001.8 998.7
С 4-8
{8}
30 км 9/9 270 м +1.1 +0.3 94 -4 -4 1001.8 998.8
С 6-8
{9}
50 км 10/10 210 м +1.1 +0.3 94 -5 -5 1001.9 998.8
С 5-7
{9}
50 км 9/9 240 м +1.1 +0.3 94 -5 -5 1002.4 999.4
Местоположение метеостанции Кумлинге (Финляндия): широта 60.26 долгота 20.75 высота над уровнем моря 23 м.
В архиве по умолчанию представлена погода в Кумлинге за последнюю неделю. Архивные данные за месяц целиком и за предыдущие месяцы, начиная с января 2011 года, Вы можете получить, выбрав интересующий диапазон дат из раскрывающегося списка и нажав кнопку "Найти!".
*Определитесь, кто Вы:
Внимание! Время в таблицах - всемирное. Для получения местного времени необходимо прибавить поправку, которая равна 1 ч.
Смотрите также архив погоды в соседних городах и на ближайших метеорологических станциях:
Партнеры нашего сайта:      
Пояснения к столбцам:
  • Ветер - указаны скорость ветра в м/с - средняя за 10 мин, порывы в срок и между сроками (в фигурных скобках) и направление, откуда дует ветер: С - северный,
  • СВ - северо-восточный, В - восточный, ЮВ - юго-восточный, Ю - южный, ЮЗ - юго-западный, З - западный, СЗ - северо-западный.
  • Видимость - горизонтальная дальность видимости в метрах или километрах. При видимости от 1 до 10 км при отсутствии осадков обычно наблюдается дымка, при ухудшении видимости до 1 км и менее - туман. В сухую погоду видимость может ухудшаться дымом, пылью или мглою.
  • Явления - указаны атмосферные явления, наблюдавшиеся в срок или в последний час перед сроком; фигурными скобками обозначены явления, наблюдавшиеся между сроками (за 1-3 часа до срока); квадратными скобками обозначены град или гололедные отложения с указанием их диаметра в мм.
  • Облачность - указаны через наклонную черту общая и нижняя облачность в баллах и высота нижней границы облаков в метрах; квадратными скобками обозначены формы облаков: Ci - перистые, Cs - перисто-слоистые, Cc - перисто-кучевые, Ac - высококучевые, As - высокослоистые, Sc - слоисто-кучевые, Ns - слоисто-дождевые, Cu - кучевые, Cb - кучево-дождевые. Подробнее классификацию облаков см. в Атласе облаков (PDF).
  • T - Температура воздуха - температура, измеренная на высоте 2 м над землей.
  • Td - Температура точки росы - температура, при понижении до которой содержащийся в воздухе водяной пар достигнет насыщения.
  • f - Относительная влажность воздуха - влажноcть воздуха, измеренная на высоте 2 м над землей.
  • Te - Эффективная температура - температура, которую ощущает одетый по сезону человек в тени. Характеристика душности погоды. При расчете учитывается влияние влажности воздуха и скорости ветра на теплоощущения человека.
  • Tes - Эффективная температура на солнце - температура, которую ощущает человек, с поправкой на солнечный нагрев. Характеристика знойности погоды. Зависит от высоты солнца над горизонтом, облачности и скорости ветра. Ночью, в пасмурную погоду, а также при ветре 12 м/с и более поправка равна нулю.
  • P - Атмосферное давление - приведенное к уровню моря атмосферное давление.
  • Po - Атмосферное давление - измеренное на уровне метеостанции атмосферное давление.
  • Tmin - Минимальная температура - минимум температуры воздуха на высоте 2 м над землей.
  • Tmax - Максимальная температура - максимум температуры воздуха на высоте 2 м над землей.
  • R - Количество осадков - Количество выпавших осадков за период времени, мм. При наведении курсора мыши на число - период времени, за который выпало указанное количество осадков.
  • R24 - Количество осадков - Количество выпавших осадков за 24 часа, мм.
  • S - Снежный покров - Высота снежного покрова, см. При наведении курсора мыши на число - состояние снежного покрова и степень покрытия местности в баллах.